Showing default

COSMOS 2575, 58929

Orbit data source: Space-Track

COSMOS 2575, 58929 is a payload satellite owned by MO RF (CIS) in SSO that was launched on Fri, 09 Feb 2024 UTC via a SOYUZ-2-1V launch vehicle from the Plesetsk Missile And Space Complex (PKMTR). Payload-class satellites include a variety of spacecraft equipped with specific instruments for various scientific and technological missions. These include communications satellites like Starlink; space stations such as the ISS; scientific satellites like the Hubble; Earth observation satellites from companies like Planet Labs, Umbra, and HawkEye 360; GPS; miniature CubeSats for education and research; and military/defense satellites.

Not visible in the next 10 days
Identifier
58929, 2024-026A
Orbit
SSO
Last TLE update
4 hours ago
Origin
Manufacturer
VNIIEM
Mission
Operational spacecraft
Bus & Motor
EMKA, Unknown motor
Mass
520 kg wet, ~500 kg dry
Launch date (UTC)
2024-02-09 (1 year ago)
Launch vehicle
SOYUZ-2-1V
Launch site
Plesetsk Missile And Space Complex (PKMTR)
Object type
Payload
Rocket body
Debris
Shape & HBR
Unknown
Radar Cross Section
Large (>1 m²)

Expand to show TLE details & history

TLE from 4 hours ago
0 COSMOS 2575
1 58929U 24026A   25192.22310705  .00018196  00000-0  12136-3 0  9997
2 58929  96.6685  85.7446 0002899 118.2642 241.8917 15.75402477 81958
Epoch: 2025-07-11T05:21Z
TLE epoch observation values (Epoch: 2025-07-11T05:21:16.449Z)
Latitude
-0.00009°
Longitude
76.04795°
Altitude
347.59 km
Speed
7.7 km/s
True Right ascension
05h 42m 58s
True Declination
0° 00' 00"
Sunlit
Object was in daylight at epoch
Visualization orbit readout
Latitude
-36.07624°
Longitude
-108.65233°
Altitude
357.58 km
Speed
7.693 km/s
Apparent Right ascension
13h 50m 17s
Apparent Declination
-55° 50' 45"
Sunlit
Object is in full shadow
Visualization observer readout
Local Sidereal Time
21:36:45
Azimuth
226.681° WSW
Elevation
-46.379°
Doppler factor
1
Orbital elements
Apogee altitude
342.295 km
Perigee altitude
338.4 km
Semi-major axis
6,718.485 km
Eccentricity
0.00029
Inclination
96.6685°
RAAN
85.7446°
Arg. of periapsis
118.2642°
True anomaly
Unknown
Mean anomaly
241.8917°
Eccentric anomaly
Unknown
Mean motion
3.94127 °/min
Orbital period
91.34 mins
BSTAR
0.00012136
Loading maneuver chart data...
Loading SW <> Apogee altitude chart data...
Loading historical data...
Loading historical data...
Loading historical data...
Loading historical data...
Loading historical data...
Loading historical data...
Loading historical data...
Other satellites on launch #26 in the year 2024 (2024-02-09 UTC)

COSMOS 2575 Visibility

Observer location: undefined°, undefined°

COSMOS 2575 is likely not visible in the next few days
Span
Click to sort rows by Start time (UTC) header in descending order
Start Az.
Max El. time (UTC)
Max El. Az.
Max El.
End time (UTC)
End Az.
|